Location: Capel Gartheli
(52.1833°N, 4.0667°W)
Time: 18:15:52
(UTC+00:00)

COSMOS 2428 - Pass Details

Date: 18 February 2020
Orbit: 846 x 856 km, 70.9° (Epoch: 06 April)

Event Time Altitude Azimuth Distance (km) Brightness Sun altitude
Exits shadow 04:16:37 35° 347° (NNW) 1,372 3.8 -29.5°
Drops below altitude 10° 04:20:34 10° 23° (NNE) 2,501 5.6 -28.9°
Sets 04:23:12 0° 31° (NNE) 3,441 6.6 -28.5°
